FW7298 Weather Reports


Display with metric or nautical units.
time (UTC)temp
F
wind
direction
speed
MPH
gust
MPH
rain 1hr
in
rain 24hr
in
rain mn
in
humidity
%
barometer
mb
20260504191608 78 277 1.0 1.0 0.00 0.00 0.00 33 1011.5
20260504191104 78 32 1.0 2.0 0.00 0.00 0.00 33 1011.9
20260504190600 77 285 4.0 6.0 0.00 0.00 0.00 33 1011.8
20260504190056 78 10 3.0 3.0 0.00 0.00 0.00 32 1011.8
20260504185553 77 340 2.0 2.0 0.00 0.00 0.00 33 1012.2
20260504185050 78 287 3.0 5.0 0.00 0.00 0.00 33 1012.2
20260504184545 78 49 0.0 1.0 0.00 0.00 0.00 33 1012.2
20260504184041 77 296 4.0 6.0 0.00 0.00 0.00 32 1012.3
20260504183538 77 3 1.0 2.0 0.00 0.00 0.00 34 1012.4
20260504183036 75 169 2.0 3.0 0.00 0.00 0.00 36 1012.5
20260504182533 76 342 5.0 8.0 0.00 0.00 0.00 33 1012.6
20260504182030 77 252 3.0 3.0 0.00 0.00 0.00 35 1012.6
20260504181527 75 50 0.0 1.0 0.00 0.00 0.00 33 1012.7
20260504181026 76 53 1.0 1.0 0.00 0.00 0.00 34 1012.9
20260504180524 75 330 2.0 2.0 0.00 0.00 0.00 34 1012.8
20260504180023 75 222 6.0 10.0 0.00 0.00 0.00 34 1012.8
20260504175519 75 25 2.0 3.0 0.00 0.00 0.00 36 1012.9
20260504175016 74 339 4.0 5.0 0.00 0.00 0.00 36 1012.9
20260504174514 74 311 1.0 2.0 0.00 0.00 0.00 36 1012.9
20260504174011 74 294 0.0 1.0 0.00 0.00 0.00 35 1013.1
20260504173507 74 278 1.0 1.0 0.00 0.00 0.00 36 1013.2
20260504173005 74 294 3.0 5.0 0.00 0.00 0.00 35 1013.4
20260504172501 74 95 0.0 1.0 0.00 0.00 0.00 34 1013.2
20260504171957 74 297 3.0 3.0 0.00 0.00 0.00 37 1013.5
20260504171454 73 86 0.0 0.0 0.00 0.00 0.00 37 1013.4
20260504170951 73 58 0.0 1.0 0.00 0.00 0.00 38 1013.5
20260504170447 73 62 1.0 2.0 0.00 0.00 0.00 36 1013.6
20260504160407 69 336 3.0 5.0 0.00 0.00 0.00 38 1014.3
20260504150831 67 158 0.0 0.0 0.00 0.00 0.00 42 1014.9
20260504150328 67 237 3.0 3.0 0.00 0.00 0.00 41 1015.2
20260504141258 63 64 0.0 0.0 0.00 0.00 0.00 50 1015.2
20260504140754 62 17 0.0 0.0 0.00 0.00 0.00 51 1015.1
20260504140250 62 54 0.0 0.0 0.00 0.00 0.00 51 1015.4
20260504130719 56 16 0.0 0.0 0.00 0.00 0.00 58 1015.8
20260504130214 55 49 0.0 0.0 0.00 0.00 0.00 57 1015.7
20260504120139 50 17 0.0 0.0 0.00 0.00 0.00 73 1016.1
20260504110606 47 4 0.0 1.0 0.00 0.00 0.00 77 1016.6
20260504100528 47 79 0.0 0.0 0.00 0.00 0.00 76 1016.3
20260504081916 49 42 0.0 0.0 0.00 0.00 0.00 70 1016.7
20260504081413 49 42 0.0 0.0 0.00 0.00 0.00 72 1016.6
20260504080908 49 39 0.0 0.0 0.00 0.00 0.00 71 1016.5
20260504080405 49 39 0.0 0.0 0.00 0.00 0.00 71 1016.5
20260504070333 49 38 0.0 0.0 0.00 0.00 0.00 76 1016.5
20260504050721 46 33 0.0 0.0 0.00 0.00 0.00 76 1016.8
20260504050218 46 33 0.0 0.0 0.00 0.00 0.00 76 1016.9
20260504045715 46 33 0.0 0.0 0.00 0.00 0.00 76 1016.7
20260504045215 46 33 0.0 0.0 0.00 0.00 0.00 75 1016.7
20260504044714 46 33 0.0 0.0 0.00 0.00 0.00 75 1016.7
20260504044211 46 33 0.0 0.0 0.00 0.00 0.00 75 1016.8
20260504043708 46 33 0.0 0.0 0.00 0.00 0.00 75 1016.7
20260504043204 46 33 0.0 0.0 0.00 0.00 0.00 75 1016.7
20260504042702 46 33 0.0 0.0 0.00 0.00 0.00 75 1016.8
20260504042158 46 33 0.0 0.0 0.00 0.00 0.00 75 1016.6
20260504041654 46 32 0.0 0.0 0.00 0.00 0.00 75 1016.5
20260504041150 46 33 0.0 0.0 0.00 0.00 0.00 75 1016.5
20260504040647 46 33 0.0 0.0 0.00 0.00 0.00 75 1016.5
20260504040144 46 33 0.0 0.0 0.00 0.00 0.00 75 1016.5
20260504035641 46 33 0.0 0.0 0.00 0.00 0.00 74 1016.6
20260504035138 45 33 0.0 0.0 0.00 0.00 0.00 74 1016.7
20260504034636 46 33 0.0 0.0 0.00 0.00 0.00 73 1016.9
20260504034132 46 33 0.0 0.0 0.00 0.00 0.00 73 1016.9
20260504033629 46 33 0.0 0.0 0.00 0.00 0.00 73 1017.0
20260504033127 46 35 0.0 0.0 0.00 0.00 0.00 74 1016.5
20260504032624 46 35 0.0 0.0 0.00 0.00 0.00 73 1016.5
20260504032121 46 34 0.0 0.0 0.00 0.00 0.00 72 1016.6
20260504031618 46 33 0.0 0.0 0.00 0.00 0.00 72 1016.4
20260504031114 46 35 0.0 0.0 0.00 0.00 0.00 72 1016.6
20260504030611 46 34 0.0 0.0 0.00 0.00 0.00 71 1016.4
20260504030108 46 21 0.0 0.0 0.00 0.00 0.00 71 1016.5
20260504025605 46 21 0.0 0.0 0.00 0.00 0.00 71 1016.5
20260504025101 46 44 0.0 0.0 0.00 0.00 0.00 71 1016.3
20260504024559 46 45 0.0 0.0 0.00 0.00 0.00 70 1016.6
20260504024055 46 46 0.0 0.0 0.00 0.00 0.00 71 1016.4
20260504023552 46 46 0.0 0.0 0.00 0.00 0.00 71 1016.3
20260504023048 46 47 0.0 0.0 0.00 0.00 0.00 70 1016.5
20260504022544 46 41 0.0 0.0 0.00 0.00 0.00 70 1016.4
20260504022040 46 33 0.0 0.0 0.00 0.00 0.00 70 1016.5
20260504021537 46 36 0.0 0.0 0.00 0.00 0.00 70 1016.1
20260504021029 46 75 0.0 0.0 0.00 0.00 0.00 70 1016.2
20260504020526 47 75 0.0 0.0 0.00 0.00 0.00 69 1016.3
20260504020022 47 76 0.0 0.0 0.00 0.00 0.00 69 1016.1
20260504015519 47 76 0.0 0.0 0.00 0.00 0.00 68 1016.2
20260504015015 47 77 0.0 1.0 0.00 0.00 0.00 68 1016.1
20260504014511 47 77 0.0 0.0 0.00 0.00 0.00 67 1016.4
20260504014008 48 78 0.0 0.0 0.00 0.00 0.00 67 1016.1
20260504013506 48 79 0.0 0.0 0.00 0.00 0.00 66 1016.1
20260504013003 49 79 0.0 0.0 0.00 0.00 0.00 65 1016.1
20260504012500 49 79 0.0 0.0 0.00 0.00 0.00 64 1015.8
20260504011958 49 76 0.0 0.0 0.00 0.00 0.00 63 1016.1
20260504011454 49 76 0.0 0.0 0.00 0.00 0.00 63 1015.9
20260504010950 50 75 0.0 0.0 0.00 0.00 0.00 63 1015.7
20260504010446 50 76 0.0 0.0 0.00 0.00 0.00 61 1015.6
20260504005942 50 76 0.0 0.0 0.00 0.00 0.00 59 1015.7
20260504005439 51 76 0.0 0.0 0.00 0.00 0.00 57 1015.6
20260504004937 51 76 0.0 0.0 0.00 0.00 0.00 57 1015.6
20260504004434 51 75 0.0 0.0 0.00 0.00 0.00 58 1015.4
20260504003931 52 76 0.0 0.0 0.00 0.00 0.00 55 1015.7
20260504003427 53 77 0.0 0.0 0.00 0.00 0.00 50 1015.6
20260504002924 53 77 0.0 0.0 0.00 0.00 0.00 51 1015.7
20260504002421 54 77 0.0 0.0 0.00 0.00 0.00 50 1015.5
20260504001919 54 77 0.0 0.0 0.00 0.00 0.00 50 1015.6
20260504001416 55 76 0.0 0.0 0.00 0.00 0.00 50 1015.6
20260504000912 55 76 0.0 0.0 0.00 0.00 0.00 48 1015.5
20260504000409 56 78 0.0 0.0 0.00 0.00 0.00 44 1015.3
20260503235907 57 78 0.0 0.0 0.00 0.00 0.00 44 1015.2
20260503235405 57 78 0.0 0.0 0.00 0.00 0.00 44 1015.4
20260503234902 58 77 0.0 0.0 0.00 0.00 0.00 41 1015.3
20260503234359 58 78 0.0 0.0 0.00 0.00 0.00 41 1015.3
20260503233857 59 78 0.0 0.0 0.00 0.00 0.00 40 1015.3
20260503233353 59 74 0.0 0.0 0.00 0.00 0.00 39 1015.2
20260503232849 60 46 0.0 0.0 0.00 0.00 0.00 37 1015.1
20260503232347 61 26 0.0 0.0 0.00 0.00 0.00 35 1015.3
20260503231845 61 325 0.0 0.0 0.00 0.00 0.00 33 1015.2
20260503231341 61 31 0.0 0.0 0.00 0.00 0.00 33 1015.3
20260503230837 62 320 0.0 1.0 0.00 0.00 0.00 32 1015.2
20260503230334 62 242 0.0 0.0 0.00 0.00 0.00 32 1015.2
20260503225833 63 9 0.0 0.0 0.00 0.00 0.00 30 1015.1
20260503225328 62 289 0.0 0.0 0.00 0.00 0.00 30 1015.1
20260503224824 62 291 1.0 2.0 0.00 0.00 0.00 30 1015.1
20260503224322 62 272 2.0 2.0 0.00 0.00 0.00 31 1014.9
20260503223820 62 41 0.0 0.0 0.00 0.00 0.00 31 1015.3
20260503223317 62 305 1.0 2.0 0.00 0.00 0.00 30 1015.3
20260503222813 64 265 1.0 1.0 0.00 0.00 0.00 30 1015.2
20260503222311 64 305 1.0 2.0 0.00 0.00 0.00 30 1015.1
20260503221809 63 218 0.0 1.0 0.00 0.00 0.00 30 1015.2
20260503221307 64 350 3.0 3.0 0.00 0.00 0.00 29 1015.3
20260503220803 64 349 0.0 1.0 0.00 0.00 0.00 29 1015.1
20260503220300 63 329 4.0 5.0 0.00 0.00 0.00 29 1015.1
20260503215757 64 327 9.0 11.0 0.00 0.00 0.00 28 1015.3
20260503215254 64 85 0.0 0.0 0.00 0.00 0.00 29 1015.4
20260503214752 64 354 3.0 3.0 0.00 0.00 0.00 29 1014.9
20260503214249 64 289 4.0 7.0 0.00 0.00 0.00 29 1015.4
20260503213746 64 226 3.0 5.0 0.00 0.00 0.00 28 1015.1
20260503213243 64 326 5.0 7.0 0.00 0.00 0.00 29 1015.4
20260503212740 63 320 3.0 3.0 0.00 0.00 0.00 31 1015.3
20260503212238 64 296 2.0 2.0 0.00 0.00 0.00 30 1015.2
20260503211735 64 270 2.0 3.0 0.00 0.00 0.00 31 1015.3
20260503211231 64 188 4.0 7.0 0.00 0.00 0.00 30 1015.2
20260503210727 64 315 1.0 1.0 0.00 0.00 0.00 30 1015.3
20260503210225 64 297 3.0 3.0 0.00 0.00 0.00 33 1015.3
20260503205720 63 255 1.0 2.0 0.00 0.00 0.00 31 1015.2
20260503205216 63 196 2.0 2.0 0.00 0.00 0.00 30 1015.5
20260503204713 63 272 2.0 3.0 0.00 0.00 0.00 32 1015.4
20260503204211 63 302 2.0 2.0 0.00 0.00 0.00 34 1015.5
20260503203708 62 162 1.0 1.0 0.00 0.00 0.00 30 1015.5
20260503203205 64 271 3.0 3.0 0.00 0.00 0.00 30 1015.5
20260503202702 63 334 4.0 5.0 0.00 0.00 0.00 32 1015.8
20260503202200 62 336 1.0 1.0 0.00 0.00 0.00 31 1015.9
20260503201658 62 22 2.0 2.0 0.00 0.00 0.00 32 1015.6
20260503201155 62 0 7.0 10.0 0.00 0.00 0.00 32 1015.8
20260503200651 62 253 3.0 3.0 0.00 0.00 0.00 32 1015.9
20260503200147 62 327 1.0 1.0 0.00 0.00 0.00 33 1015.9
20260503195644 62 282 3.0 3.0 0.00 0.00 0.00 33 1016.1
20260503195141 62 334 3.0 7.0 0.00 0.00 0.00 33 1016.2
20260503194638 63 243 2.0 3.0 0.00 0.00 0.00 31 1016.2
20260503194133 64 281 2.0 2.0 0.00 0.00 0.00 33 1016.4
20260503193631 62 338 1.0 2.0 0.00 0.00 0.00 34 1016.2
20260503193126 62 46 1.0 1.0 0.00 0.00 0.00 33 1016.2
20260503192622 61 330 3.0 5.0 0.00 0.00 0.00 35 1016.6
20260503192118 62 332 4.0 6.0 0.00 0.00 0.00 31 1016.4